User: anonymous   Login
Location: Banios
(43.0451°N, 0.2335°E)
Time: 01:03:38
(UTC+00:00)
Language:

SR - Orbit

View from above orbital plane
View from above orbital plane
View from above satellite
View from above satellite

Ground track
Ground track

The orbit data is extracted from the following two-line orbital elements,

1 00046U 60007B   21131.03865045  .00000028  00000-0  28466-4 0  9992
2 00046  66.6905 241.3069 0217086 247.7879 110.0073 14.49395519186587
Epoch (UTC): 11 May 2021 00:55:39
Eccentricity: 0.0217086
inclination: 66.6905°
perigee height: 573 km
apogee height: 882 km
right ascension of ascending node: 241.3069°
argument of perigee: 247.7879°
revolutions per day: 14.49395519
mean anomaly at epoch: 110.0073°
orbit number at epoch: 18658

The dashed part of the orbit path shows where the satellite is in the earth's shadow,  

DLR